Погода в Пялице

Погода в Пялице : погода сейчас, прогноз погоды и архив. Всё, что Вы хотите узнать о погоде в Пялице!

Хотите узнать прогноз погоды в Пялице? Тогда Вам сюда: Погода в Пялице

Поиск расширенной информации на нашем сайте:

Другие новости

Новости СМИ2

Главная страница сайта

Новости сайта

03.07.2017

Напоминаем, что на нашем специализированном сайте Метеоцентр.Азия вы можете получить высокодетализированные автоматические прогнозы погоды по пунктам России, СНГ и мира в авиационном формате (включающие направление и скорость ветра, видимость, явления погоды, количество и форму облачности, нижнюю и верхнюю границу облачности).

Рекомендуем: Мастера ушу - обои спорт.

Погода в Пялице - сегодня

Время (UTC), дата Ветер
(°,м/с) 
Видим.   Явления Облачность Т
(°С)
Тd
(°С)
f(%) Тe
(°С)
Pmin
(гПа)
dP
(гПа)
Po
(мм)
O2
(г/м3)
Тmin Tmax R s Состояние
почвы
03 12.02.18 040 (СВ) 2-3  4000 м  слаб. ливневой снег  10/10 600 м кучево-дожд. 
[Cb cap]
-7.2 -7.7 96 -9  1018.8  0.1  763  317  -8.8    0.7     
21 12.02.18 240 (ЮЗ) 5-6  н/о    н/о 
-3.4 -3.8 97 -7  1020.1  0.4  764  312           
03 13.02.18 220 (ЮЗ) 6-7  20000 м  {ливн. осадки}  10/10 600 м кучево-дожд. 
[Cb cap]
-3.8 -4.5 95 -8  1021.1  0.5  765  313  -4.3    0.2     
21 13.02.18 200 (Ю) 4-5  н/о    н/о 
-4.1 -4.5 97 -7  1024  0.8  767  314           
09 14.02.18 200 (Ю) 4-4  20000 м    10/10 600 м 
[Sc]
-4.3 -4.8 96 -7  1026.4  0.8  769  315           
21 14.02.18 230 (ЮЗ) 6-7  н/о    н/о 
-4.1 -4.7 96 -8  1027.7  0.2  770  316           
18 15.02.18 230 (ЮЗ) 9-12{13}  20000 м  позёмок{ливн. осадки}  10/10 600 м кучево-дожд. 
[Cb cap]
-3.2 -4.4 91 -8  1025.1  -0.8  768  314    -3.2  0.4     
21 15.02.18 240 (ЮЗ) 9-12{13}  н/о    н/о 
-3.5 -4.2 95 -9  1024.5  -0.8  767  314           
03 16.02.18 230 (ЮЗ) 9-11{12}  4000 м  слаб. ливневой снег  10/10 600 м кучево-дожд. 
[Cb cap]
-4 -4.4 97 -9  1022.9  -0.5  766  314  -4.1    0.7     
18 16.02.18 240 (ЮЗ) 7-9{11}  20000 м    10/10 600 м 
[Sc]
-5.4 -6 96 -10  1022.6  -0.2  766  316    -3.2  0.0     
21 16.02.18 240 (ЮЗ) 5-6  н/о    н/о 
-5.5 -6.1 96 -9  1022.4  -0.2  766  316           
21 17.02.18 300 (СЗ) 1-3  н/о    н/о 
-9.4 -10.3 93 -9  1023.2  0.2  767  321           
09 18.02.18 тихо ()   20000 м  [диам. изморози 4 мм]  6/0 верхняя 
[Ci fib]
-9.5 -10.4 93 -10  1023.6  0.1  767  321           
15 18.02.18 тихо ()   20000 м    8/3 600 м верхняя 
[Sc|Ci fib]
-11.7 -12.4 95 -12  1023.9  767  324           
21 18.02.18 330 (СЗ) 2-3  н/о    н/о 
-16.4 -17.7 90 -19  1024  0.4  767  330           
09 19.02.18 тихо ()   20000 м  [диам. изморози 3 мм]  9/8 600 м верхняя 
[Sc|Ci fib]
-10.3 -11.1 94 -10  1023.6  0.4  767  322           
21 19.02.18 010 (С) 3-4  н/о    н/о 
-9.5 -10.1 95 -12  1026.1  0.1  769  322           
03 20.02.18 350 (С) 2-2  10 км  слаб. ливневой снег  10/10 600 м кучево-дожд. 
[Cb cap]
-8.2 -9.7 89 -10  1026  -0.2  769  320  -11.5    0.0     
09 20.02.18 040 (СВ) 1-2  20000 м    10/10 600 м 
[Sc]
-7.5 -10.2 81 -7  1026  0.1  769  319           
21 20.02.18 250 (З) 4-4  н/о    н/о 
-10.6 -11.6 92 -15  1022.4  -1.1  766  322           
03 21.02.18 240 (ЮЗ) 3-3  20000 м  {ливн. осадки}  4/3 600 м верхняя 
[Sc|Ci fib]
-15.4 -16.6 90 -19  1020.8  -0.8  765  328  -15.4    0.2     
21 21.02.18 010 (С) 3-3  н/о    н/о 
-11.2 -12.1 93 -14  1020.5  0.5  765  322           
03 22.02.18 010 (С) 4-4  4000 м  слаб. ливневой снег  8/8 600 м кучево-дожд. 
[Cb cap]
-14.9 -16.1 91 -20  1021.5  0.4  765  328  -14.9    0.6     
09 22.02.18 010 (С) 4-5  20000 м    9/6 600 м верхняя 
[Sc|Ci fib]
-10.5 -11.7 91 -15  1023.7  1.1  767  323           
21 22.02.18 010 (С) 5-6  н/о    н/о 
-16.5 -18.4 85 -22  1028.4  0.5  770  332           
Время (UTC), дата Ветер
(°,м/с) 
Видим.   Явления Облачность Т
(°С)
Тd
(°С)
f(%) Тe
(°С)
Pmin
(гПа)
dP
(гПа)
Po
(мм)
O2
(г/м3)
Тmin Tmax R s Состояние
почвы

Для получения пояснительной информации подведите курсор к названию столбца.

ПОГОДА в Пялице - архив

Всё, что Вы хотите узнать о погоде в Пялице - удобно и подробно!

Выберите нужную дату (начиная с 1 января 2015* года) и нажмите кнопку "Найти".
Будут отображены архивные сводки погоды по пункту Пялица, начиная с указанной даты.


Отображать данные в формате CSV (для использования в таблицах Excel)


Внимание! Наш архив погоды предназначен исключительно для личного некоммерческого использования в познавательных целях. Если Вам необходимы официальные справки о состоянии погоды (для производственных, юридических, коммерческих и т.п. целей), обращайтесь в органы Росгидромета.

*Примечание: данная дата относится к архиву по метеостанциям СССР (Россия, СНГ, Балтия).
Архив по метеостанциям Зарубежной Европы и Азии (кроме Китая) хранится 10 дней, по другим регионам земного шара (Китай, Африка, Америка, Австралия, Океания) - 1 день.

Пялица - район местоположения метеостанции


Название, широта, долгота, высота метеостанции:
Пялица 66.2°ш. 39.5°д. 9 м над ур. моря [Российская Федерация]

Дополнительная информация

В oтличие oт бoльшинства пoгoдных сайтoв мы публикуем пoдрoбную метеoинфoрмацию в детальнoм прoфессиoнальнoм фoрмате.

Характеристики температуры и влажнoсти вoздуха измеряются на высoте 2 м в тени вдали oт зданий и деревьев.
Скoрoсть ветра измеряется на высoте 10 м (на урoвне рoста челoвека скoрoсть ветра ниже в 1.5-2 раза). Если метеoстанция нахoдится в гoрoде или в лесу, тo скoрoсть ветра занижена на 2-4 м/с пo сравнению с oткрытым местoм. Скoрoсть ветра над акватoриями крупных рек и oзёр, а также на вершинах хoлмoв на 2-5 м/с выше, чем в oбычных услoвиях.
Атмoсфернoе давление в разных тoчках местнoсти мoжет значительнo oтличаться oт давления на метеoстанции, в зависимoсти oт услoвий рельефа (при пoдъёме на 10 м давление пoнижается примернo на 1 мм рт.ст.).